sat.trackr.live / text

‹ back to catalog

STARLINK-31891

NORAD 59854 · 2024-097V

PAYLOAD ACTIVE UNKNOWN

§ Identity

Operator
Country
US
Launch date
2024-05-23
Launch site
AFETR
Launch vehicle
Mass (kg)
RCS (m²)

Purposes: comms

External: N2YO · Heavens-Above · Gunter

§ Orbital elements

Epoch: 2026-05-25T04:36:01.306656Z

Period
94.27 min
Inclination
42.9983°
Eccentricity
0.0001003
Mean motion
15.27585607 rev/d
Perigee alt
482.3 km
Apogee alt
483.7 km
Semi-major
6,861.2 km
B*
-1.7751e-5
RAAN
202.5883°
Arg perigee
287.8793°
Mean anomaly
72.1949°
Rev number
11,361

§ Raw data

STARLINK-318911 59854U 24097V   26145.19168179 -.00000750  00000+0 -17751-4 0  99912 59854  42.9983 202.5883 0001003 287.8793  72.1949 15.27585607113614

JSON: /api/v1/satellites/59854 · /tle

For live sub-satellite position, see the globe view (requires WebGL).

§ Visibility from observer

Set your observer location to see the next 7 days of passes ≥ 10°. The values pass through the URL so the page stays shareable.

No JS? Fill the form by hand. The geolocation button needs JavaScript.